| time (UTC) | temp C | wind direction | speed KPH | gust KPH | rain 1hr cm | rain 24hr cm | rain mn cm | humidity % | barometer mb |
| 20260505170009 | 12 | 305 | 3.2 | 6.4 | 0.00 | 0.00 | 0.00 | 87 | 1015.4 |
| 20260505164504 | 12 | 321 | 3.2 | 6.4 | 0.00 | 0.00 | 0.00 | 87 | 1015.3 |
| 20260505163002 | 12 | 202 | 1.6 | 6.4 | 0.00 | 0.00 | 0.00 | 88 | 1015.3 |
| 20260505161502 | 12 | 309 | 1.6 | 8.0 | 0.00 | 0.00 | 0.00 | 88 | 1015.2 |
| 20260505153059 | 11 | 200 | 1.6 | 4.8 | 0.00 | 0.00 | 0.00 | 90 | 1015.2 |
| 20260505151608 | 11 | 172 | 3.2 | 6.4 | 0.00 | 0.00 | 0.00 | 89 | 1015.1 |
| 20260505124548 | 11 | 164 | 0.0 | 4.8 | 0.00 | 0.00 | 0.00 | 89 | 1014.1 |
| 20260505123043 | 11 | 229 | 0.0 | 4.8 | 0.00 | 0.00 | 0.00 | 89 | 1014.0 |
| 20260505121543 | 11 | 166 | 1.6 | 6.4 | 0.00 | 0.00 | 0.00 | 89 | 1014.0 |
| 20260505120048 | 11 | 174 | 1.6 | 8.0 | 0.00 | 0.00 | 0.00 | 89 | 1013.9 |
| 20260505114545 | 11 | 240 | 1.6 | 6.4 | 0.00 | 0.00 | 0.00 | 89 | 1013.8 |
| 20260505113039 | 11 | 180 | 0.0 | 8.0 | 0.00 | 0.00 | 0.00 | 89 | 1013.9 |
| 20260505111538 | 11 | 231 | 0.0 | 6.4 | 0.00 | 0.00 | 0.00 | 89 | 1013.8 |
| 20260505101539 | 11 | 161 | 1.6 | 6.4 | 0.00 | 0.00 | 0.00 | 89 | 1013.2 |
| 20260505100032 | 11 | 320 | 0.0 | 3.2 | 0.00 | 0.00 | 0.00 | 89 | 1013.3 |
| 20260505094531 | 11 | 178 | 0.0 | 4.8 | 0.00 | 0.00 | 0.00 | 89 | 1013.2 |
| 20260505093027 | 11 | 343 | 0.0 | 6.4 | 0.00 | 0.00 | 0.00 | 88 | 1013.1 |
| 20260505091526 | 11 | 246 | 0.0 | 8.0 | 0.00 | 0.00 | 0.00 | 87 | 1012.9 |
| 20260505090023 | 11 | 248 | 1.6 | 8.0 | 0.00 | 0.00 | 0.00 | 87 | 1012.9 |
| 20260505084533 | 11 | 311 | 0.0 | 6.4 | 0.00 | 0.00 | 0.00 | 87 | 1012.7 |
| 20260505083020 | 11 | 14 | 3.2 | 11.3 | 0.00 | 0.00 | 0.00 | 86 | 1012.7 |
| 20260505081518 | 11 | 290 | 1.6 | 8.0 | 0.00 | 0.00 | 0.00 | 85 | 1012.7 |
| 20260505080020 | 12 | 224 | 1.6 | 8.0 | 0.00 | 0.00 | 0.00 | 85 | 1012.6 |
| 20260505074513 | 12 | 210 | 1.6 | 11.3 | 0.00 | 0.00 | 0.00 | 84 | 1012.4 |
| 20260505073011 | 12 | 217 | 1.6 | 12.9 | 0.00 | 0.00 | 0.00 | 84 | 1012.2 |
| 20260505071509 | 12 | 180 | 1.6 | 12.9 | 0.00 | 0.00 | 0.00 | 84 | 1012.0 |
| 20260505070007 | 12 | 199 | 1.6 | 9.7 | 0.00 | 0.00 | 0.00 | 83 | 1012.0 |
| 20260505064505 | 12 | 197 | 3.2 | 11.3 | 0.00 | 0.00 | 0.00 | 83 | 1011.8 |
| 20260505063009 | 13 | 214 | 3.2 | 8.0 | 0.00 | 0.00 | 0.00 | 82 | 1011.6 |
| 20260505061505 | 13 | 257 | 3.2 | 9.7 | 0.00 | 0.00 | 0.00 | 81 | 1011.4 |
| 20260505060004 | 13 | 238 | 1.6 | 8.0 | 0.00 | 0.00 | 0.00 | 80 | 1011.3 |
| 20260505054503 | 14 | 306 | 1.6 | 8.0 | 0.00 | 0.00 | 0.00 | 79 | 1011.3 |
| 20260505053003 | 15 | 325 | 1.6 | 9.7 | 0.00 | 0.00 | 0.00 | 77 | 1011.1 |
| 20260505051503 | 16 | 205 | 1.6 | 8.0 | 0.00 | 0.00 | 0.00 | 76 | 1011.1 |
| 20260505041605 | 16 | 217 | 1.6 | 9.7 | 0.00 | 0.00 | 0.00 | 76 | 1010.2 |
| 20260505041501 | 16 | 296 | 3.2 | 9.7 | 0.00 | 0.00 | 0.00 | 76 | 1010.2 |
| 20260505040100 | 17 | 286 | 0.0 | 12.9 | 0.00 | 0.00 | 0.00 | 77 | 1010.0 |
| 20260505034559 | 17 | 219 | 3.2 | 11.3 | 0.00 | 0.00 | 0.00 | 76 | 1009.8 |
| 20260505033103 | 17 | 236 | 1.6 | 8.0 | 0.00 | 0.00 | 0.00 | 77 | 1009.7 |
| 20260505031607 | 18 | 279 | 1.6 | 11.3 | 0.00 | 0.00 | 0.00 | 75 | 1009.5 |
| 20260505030106 | 18 | 234 | 1.6 | 6.4 | 0.00 | 0.00 | 0.00 | 76 | 1009.4 |
| 20260505024605 | 18 | 266 | 0.0 | 8.0 | 0.00 | 0.00 | 0.00 | 75 | 1009.2 |
| 20260505023057 | 19 | 170 | 3.2 | 8.0 | 0.00 | 0.00 | 0.00 | 73 | 1009.2 |
| 20260505021559 | 20 | 126 | 3.2 | 11.3 | 0.00 | 0.00 | 0.00 | 72 | 1009.2 |
| 20260505020056 | 20 | 169 | 3.2 | 9.7 | 0.00 | 0.00 | 0.00 | 72 | 1009.2 |
| 20260505014608 | 20 | 147 | 1.6 | 12.9 | 0.00 | 0.00 | 0.00 | 71 | 1009.2 |
| 20260505013055 | 20 | 172 | 3.2 | 9.7 | 0.00 | 0.00 | 0.00 | 70 | 1009.3 |
| 20260505011605 | 20 | 240 | 4.8 | 12.9 | 0.00 | 0.00 | 0.00 | 70 | 1009.4 |
| 20260505010054 | 20 | 178 | 8.0 | 14.5 | 0.00 | 0.00 | 0.00 | 68 | 1009.5 |
| 20260505004554 | 21 | 308 | 4.8 | 14.5 | 0.00 | 0.00 | 0.00 | 68 | 1009.6 |
| 20260505003053 | 21 | 167 | 3.2 | 17.7 | 0.00 | 0.00 | 0.00 | 66 | 1009.6 |
| 20260505001552 | 21 | 116 | 4.8 | 14.5 | 0.00 | 0.00 | 0.00 | 66 | 1009.6 |
| 20260505000106 | 22 | 183 | 4.8 | 17.7 | 0.00 | 0.00 | 0.00 | 63 | 1009.6 |
| 20260504234551 | 22 | 192 | 4.8 | 14.5 | 0.00 | 0.00 | 0.00 | 62 | 1009.8 |
| 20260504233106 | 23 | 282 | 6.4 | 14.5 | 0.00 | 0.00 | 0.00 | 61 | 1010.0 |
| 20260504231550 | 23 | 177 | 8.0 | 19.3 | 0.00 | 0.00 | 0.00 | 61 | 1010.0 |
| 20260504230050 | 23 | 178 | 6.4 | 14.5 | 0.00 | 0.00 | 0.00 | 61 | 1010.1 |
| 20260504224553 | 23 | 202 | 4.8 | 17.7 | 0.00 | 0.00 | 0.00 | 61 | 1010.2 |
| 20260504223100 | 23 | 264 | 3.2 | 12.9 | 0.00 | 0.00 | 0.00 | 60 | 1010.4 |
| 20260504221543 | 22 | 192 | 8.0 | 19.3 | 0.00 | 0.00 | 0.00 | 61 | 1010.4 |
| 20260504220039 | 22 | 144 | 4.8 | 16.1 | 0.00 | 0.00 | 0.00 | 61 | 1010.6 |
| 20260504214535 | 22 | 173 | 9.7 | 16.1 | 0.00 | 0.00 | 0.00 | 63 | 1010.8 |
| 20260504213046 | 21 | 165 | 4.8 | 14.5 | 0.00 | 0.00 | 0.00 | 63 | 1011.0 |
| 20260504211534 | 21 | 173 | 9.7 | 17.7 | 0.00 | 0.00 | 0.00 | 65 | 1011.1 |
| 20260504210028 | 21 | 229 | 4.8 | 14.5 | 0.00 | 0.00 | 0.00 | 67 | 1011.4 |
| 20260504204536 | 20 | 123 | 4.8 | 17.7 | 0.00 | 0.00 | 0.00 | 68 | 1011.6 |
| 20260504203025 | 19 | 188 | 3.2 | 12.9 | 0.00 | 0.00 | 0.00 | 69 | 1011.7 |
| 20260504201521 | 18 | 168 | 3.2 | 12.9 | 0.00 | 0.00 | 0.00 | 72 | 1011.9 |
| 20260504200024 | 17 | 216 | 8.0 | 16.1 | 0.00 | 0.00 | 0.00 | 75 | 1012.0 |
| 20260504194520 | 16 | 189 | 3.2 | 12.9 | 0.00 | 0.00 | 0.00 | 76 | 1012.0 |
| 20260504193020 | 16 | 149 | 4.8 | 16.1 | 0.00 | 0.00 | 0.00 | 75 | 1012.1 |
| 20260504191521 | 15 | 274 | 3.2 | 14.5 | 0.00 | 0.00 | 0.00 | 78 | 1012.2 |
| 20260504190019 | 15 | 162 | 3.2 | 12.9 | 0.00 | 0.00 | 0.00 | 78 | 1012.2 |
| 20260504184517 | 15 | 207 | 4.8 | 12.9 | 0.00 | 0.00 | 0.00 | 80 | 1012.3 |